[[{"header":{"parameterUnit":"m.s-1","parameterCategory":2,"la1":30.2991,"la2":30.254,"lo1":-89.0895,"lo2":-89.0444,"dy":0.0017,"dx":0.0017,"nx":28,"ny":28,"refTime":"2024-05-29T21:00:00:Z","depth":"0","parameterNumber":2,"parameterNumberName":"U-component_of_CURRENTS"},"data":[0,0,0,0,0,0,0,0,0,0,0,0,0,0,0,0,0,0,0,0,0,0,0,0,0,0,0,0,0,0,0,0,0,0,0,0,0,0,0,0,0,0,0,0,0,0,0,0,0,0,0,0,0,0,0,0,0,0,0.3114,0.3115,0,0.3198,0.3199,0.32,0.3248,0.3248,0.3248,0.3248,0.3245,0.3245,0.3245,0,0,0,0,0,0,0,0,0,0,0,0,0,0.2988,0.299,0.3114,0.3115,0.3116,0.3198,0.3199,0.32,0.3248,0.3248,0.3248,0.3249,0.3245,0.3245,0.3245,0,0,0,0,0,0,0,0,0,0,0,0,0,0.3054,0.2991,0.3113,0.315,0.3154,0.3197,0.3199,0.32,0.3248,0.3248,0.3248,0.3249,0.3246,0.3245,0.3245,0.3235,0,0,0.3243,0.3243,0,0,0,0,0,0,0,0,0.305,0.3059,0.3144,0.3148,0.3152,0.3213,0.3153,0.3208,0.3248,0.3212,0.3248,0.3249,0.3226,0.3228,0.3243,0.3235,0.3235,0.3243,0.3243,0.3243,0.3243,0,0,0,0,0,0,0,0.3046,0.3055,0.3146,0.3145,0.315,0.316,0.317,0.3164,0.3214,0.3215,0.3219,0.3229,0.3228,0.3244,0.3243,0.3235,0.3243,0.3243,0.3243,0.3242,0.3283,0.3285,0,0,0,0,0,0,0.3037,0.3051,0.3144,0.3149,0.3102,0.3162,0.3173,0.3193,0.3216,0.3221,0.3228,0.3231,0.3244,0.3244,0.3243,0.3284,0.3243,0.3242,0.3242,0.3282,0.3284,0.3285,0,0,0,0,0,0,0.3034,0.3045,0.314,0.3101,0.3115,0.3164,0.3186,0.3194,0.3215,0.3228,0.3231,0.324,0.3244,0.3244,0.3261,0.3282,0.3242,0.3242,0.3281,0.3283,0.3285,0.3332,0,0,0,0,0,0,0.303,0.3043,0.3055,0.3101,0.3116,0.3164,0.3186,0.3196,0.322,0.3224,0.3238,0.3239,0.3245,0.3261,0.326,0.328,0.3241,0.3279,0.3281,0.3284,0.3329,0.3335,0.3341,0,0,0,0,0,0.3025,0.304,0.3055,0.3066,0.3131,0.3164,0.3172,0.3207,0.322,0.3227,0.3253,0.3238,0.3277,0.3262,0.326,0.3281,0.3278,0.3281,0.3284,0.3326,0.3334,0.3341,0,0,0,0,0,0,0.2974,0.3047,0.3065,0.3096,0.3125,0.3172,0.3184,0.3206,0.3234,0.3234,0.325,0.3253,0.3278,0.3271,0.3255,0.3302,0.3276,0.3279,0.3309,0.3316,0.3322,0.3353,0.3241,0,0,0,0,0,0.2972,0.3005,0.3062,0.3076,0.3098,0.3139,0.3158,0.3178,0.3209,0.3222,0.324,0.326,0.3288,0.3295,0.3308,0.3324,0.3351,0.3339,0.3345,0.335,0.3376,0.3428,0.3441,0.3295,0.3295,0.3295,0,0,0.2946,0.2994,0.3006,0.3068,0.3096,0.3135,0.3151,0.3173,0.3214,0.3213,0.3264,0.3275,0.3297,0.3331,0.3341,0.3328,0.3409,0.3354,0.3358,0.3382,0.3433,0.3447,0.346,0.3297,0.3297,0.3297,0,0,0.2915,0.2963,0.2985,0.3026,0.3075,0.3114,0.3121,0.3172,0.3207,0.3246,0.3272,0.3308,0.3326,0.3372,0.3392,0.3437,0.3438,0.3425,0.3482,0.3531,0.3544,0.3556,0.3621,0.3638,0.3429,0.3429,0.3429,0,0.2877,0.2937,0.2986,0.3027,0.3075,0.3109,0.3149,0.3187,0.3236,0.3283,0.3262,0.3355,0.3359,0.3448,0.3468,0.3453,0.3482,0.3449,0.3541,0.3552,0.3563,0.3627,0.3645,0.3432,0.3432,0.3431,0.3431,0,0.2879,0.2932,0.2947,0.303,0.3076,0.3112,0.3185,0.3231,0.327,0.3317,0.3398,0.342,0.3486,0.3485,0.349,0.3579,0.3575,0.354,0.3522,0.3581,0.3644,0.3663,0.3436,0.3435,0.3434,0.3433,0,0,0.2799,0.2926,0.2936,0.3005,0.3096,0.3145,0.3218,0.332,0.3396,0.3427,0.3526,0.3576,0.3592,0.3619,0.3628,0.3669,0.3766,0.3639,0.364,0.3706,0.3893,0.3863,0.388,0.3737,0.3741,0.3743,0.391,0,0.2794,0.2889,0.2954,0.3055,0.3128,0.3212,0.3291,0.3381,0.3451,0.3544,0.3594,0.3665,0.3642,0.3672,0.3717,0.3747,0.3814,0.3726,0.3825,0.3829,0.3796,0.3899,0.3618,0.3741,0.3928,0.3931,0.3933,0,0.2802,0.2881,0.2978,0.3142,0.3179,0.3235,0.341,0.348,0.3609,0.3659,0.374,0.3768,0.386,0.3806,0.3928,0.3868,0.3903,0.3918,0.3924,0.3896,0.3833,0.371,0.3766,0.3648,0.396,0.3958,0.3956,0,0.2793,0.2918,0.3013,0.3064,0.3223,0.3294,0.3378,0.3515,0.3609,0.373,0.3793,0.389,0.3946,0.3995,0.4038,0.3987,0.4159,0.4086,0.4112,0.411,0.3894,0.3868,0.3848,0.4199,0.4198,0.4198,0.4197,0,0.2814,0.2894,0.3018,0.3083,0.3214,0.3308,0.3449,0.3545,0.3675,0.3784,0.3847,0.3941,0.3992,0.4086,0.4101,0.4181,0.4222,0.4166,0.4163,0.3904,0.3878,0.3782,0.3741,0.4204,0.4203,0.4202,0.4201,0,0.281,0.2883,0.3013,0.3169,0.3221,0.3318,0.3491,0.3582,0.3697,0.3837,0.3874,0.4013,0.4136,0.4205,0.4304,0.4274,0.42,0.4356,0.4064,0.4024,0.3895,0.3866,0.3776,0.3679,0.4401,0.4402,0.4402,0,0.2818,0.2882,0.3062,0.3131,0.3203,0.3343,0.3431,0.3581,0.3668,0.3879,0.3935,0.4108,0.4202,0.4357,0.4339,0.4398,0.426,0.4169,0.4021,0.3896,0.3862,0.3719,0.3633,0.3758,0.3753,0.3749,0.3746,0,0.2839,0.2899,0.2997,0.3132,0.3236,0.3365,0.3491,0.3563,0.3726,0.3825,0.3962,0.4051,0.4217,0.4143,0.4232,0.4211,0.3913,0.4092,0.4009,0.3424,0.3216,0.3115,0.367,0.371,0.3713,0.3716,0.3718,0.3719,0.2834,0.2894,0.3003,0.3125,0.3233,0.333,0.3379,0.3491,0.3598,0.3678,0.3855,0.3884,0.3884,0.3963,0.3937,0.3695,0.3775,0.3503,0.3507,0.3398,0.3205,0.3722,0.3726,0.373,0.3733,0.3735,0.3738,0,0.2815,0.2876,0.2983,0.3096,0.3153,0.3253,0.3366,0.3356,0.3389,0.3504,0.3566,0.3494,0.3403,0.3386,0.3215,0.3079,0.2902,0.2987,0.2668,0.2638,0.3119,0.2988,0.2771,0.2771,0.2771,0.2772,0.2772,0.2772,0.2804,0.2871,0.2918,0.2976,0.3038,0.3052,0.3082,0.3077,0.312,0.3048,0.2981,0.2994,0.2998,0.2853,0.2637,0.2566,0.2386,0.2247,0.2378,0.2648,0.2693,0.2736,0.2601,0.2307,0.2307,0.1673,0.1669,0.1665]},{"header":{"parameterUnit":"m.s-1","parameterCategory":2,"la1":30.2991,"la2":30.254,"lo1":-89.0895,"lo2":-89.0444,"dy":0.0017,"dx":0.0017,"nx":28,"ny":28,"refTime":"2024-05-29T21:00:00:Z","depth":"0","parameterNumber":3,"parameterNumberName":"V-component_of_CURRENTS"},"data":[0,0,0,0,0,0,0,0,0,0,0,0,0,0,0,0,0,0,0,0,0,0,0,0,0,0,0,0,0,0,0,0,0,0,0,0,0,0,0,0,0,0,0,0,0,0,0,0,0,0,0,0,0,0,0,0,0,0,0.0144,0.0144,0,0.011,0.011,0.0109,0.0069,0.0069,0.0069,0.0068,-0.0067,-0.007,-0.0074,0,0,0,0,0,0,0,0,0,0,0,0,0,0.0158,0.0158,0.0144,0.0144,0.0144,0.011,0.011,0.0109,0.0069,0.0069,0.0068,0.0068,-0.0066,-0.007,-0.0074,0,0,0,0,0,0,0,0,0,0,0,0,0,0.0138,0.0158,0.0144,0.0122,0.012,0.0111,0.011,0.0109,0.0069,0.0069,0.0068,0.0068,-0.0065,-0.007,-0.0074,-0.0094,0,0,-0.0089,-0.0092,0,0,0,0,0,0,0,0,0.0139,0.0137,0.0125,0.0124,0.0121,0.0096,0.0065,0.0037,0.007,0.0086,0.0068,0.0068,-0.002,-0.0028,-0.0036,-0.0101,-0.0106,-0.009,-0.0093,-0.0095,-0.0096,0,0,0,0,0,0,0,0.0141,0.0139,0.0128,0.0125,0.0123,0.0108,0.0105,0.006,0.0032,0.0084,0.0082,0.0083,-0.0022,-0.0031,-0.004,-0.0108,-0.009,-0.0094,-0.0097,-0.0099,-0.0204,-0.0203,0,0,0,0,0,0,0.0152,0.014,0.0129,0.0127,0.0132,0.0109,0.0105,0.0102,0.0035,0.0026,0.0083,0.0081,-0.0023,-0.0034,-0.0045,-0.0098,-0.0095,-0.01,-0.0102,-0.0204,-0.0204,-0.0203,0,0,0,0,0,0,0.0152,0.0151,0.013,0.0135,0.0132,0.011,0.0107,0.0102,0.0095,0.0036,0.0024,0.0082,-0.0023,-0.0038,-0.0078,-0.0103,-0.0102,-0.0106,-0.0204,-0.0204,-0.0203,-0.0189,0,0,0,0,0,0,0.0153,0.0152,0.0154,0.0136,0.0132,0.0132,0.0108,0.0102,0.0098,0.0094,0.0031,0.0018,-0.0025,-0.007,-0.0082,-0.011,-0.011,-0.0204,-0.0204,-0.0204,-0.0189,-0.0188,-0.0187,0,0,0,0,0,0.0153,0.0159,0.0154,0.0153,0.0136,0.0132,0.0129,0.0109,0.0098,0.01,0.0059,0.002,-0.0077,-0.0073,-0.0088,-0.0118,-0.0204,-0.0204,-0.0204,-0.019,-0.0188,-0.0187,0,0,0,0,0,0,0.0169,0.0156,0.0149,0.0151,0.0147,0.0127,0.0128,0.0116,0.0087,0.0079,0.0022,0.0007,-0.004,-0.0069,-0.0064,-0.0143,-0.0148,-0.015,-0.0132,-0.0131,-0.013,-0.012,-0.0114,0,0,0,0,0,0.0175,0.0174,0.0163,0.0167,0.0166,0.0149,0.0146,0.0134,0.0108,0.0095,0.0052,0.0003,-0.0049,-0.008,-0.0123,-0.0165,-0.017,-0.0191,-0.019,-0.0189,-0.0189,-0.0202,-0.0202,-0.0202,-0.0202,-0.0202,0,0,0.0185,0.0177,0.0178,0.0171,0.0164,0.0157,0.0145,0.0145,0.0125,0.0083,0.0044,0.0007,-0.0056,-0.0105,-0.013,-0.0136,-0.0188,-0.0188,-0.0187,-0.0188,-0.0202,-0.0202,-0.0202,-0.0202,-0.0202,-0.0202,0,0,0.0203,0.0197,0.0201,0.0196,0.019,0.0173,0.0177,0.016,0.0137,0.0107,0.0063,0.0023,-0.0047,-0.01,-0.0138,-0.0151,-0.0177,-0.0168,-0.0166,-0.0179,-0.0179,-0.0179,-0.0172,-0.0172,-0.0173,-0.0173,-0.0173,0,0.0216,0.0215,0.0204,0.0205,0.0197,0.0182,0.018,0.0154,0.0124,0.0101,0.0099,0.0003,-0.0049,-0.0124,-0.0134,-0.0152,-0.0151,-0.0171,-0.0177,-0.0178,-0.0179,-0.0171,-0.0171,-0.0172,-0.0172,-0.0172,-0.0172,0,0.0232,0.0231,0.0236,0.0222,0.0212,0.0213,0.0179,0.0159,0.0135,0.0109,0.0054,0.0,-0.0053,-0.0085,-0.0121,-0.0164,-0.0157,-0.017,-0.0182,-0.0178,-0.017,-0.017,-0.0171,-0.0171,-0.0171,-0.0172,0,0,0.0259,0.0249,0.025,0.0245,0.022,0.0216,0.0175,0.0138,0.0123,0.0081,0.006,-0.0037,-0.0045,-0.0086,-0.0132,-0.0157,-0.0163,-0.0165,-0.0167,-0.0158,-0.0172,-0.0116,-0.0111,-0.0175,-0.0175,-0.0175,-0.016,0,0.0275,0.0282,0.0262,0.0257,0.0256,0.0217,0.0188,0.0148,0.0118,0.0098,0.0029,-0.0002,-0.0054,-0.0067,-0.0104,-0.0146,-0.0165,-0.0165,-0.0178,-0.0178,-0.0129,-0.0111,-0.0048,-0.0024,-0.016,-0.016,-0.016,0,0.0292,0.0294,0.0297,0.0275,0.0271,0.026,0.0218,0.019,0.014,0.0124,0.0081,0.0045,-0.0016,-0.0037,-0.0112,-0.0106,-0.0137,-0.0166,-0.0166,-0.0121,-0.0123,-0.0053,-0.002,-0.0142,-0.0161,-0.0161,-0.0161,0,0.032,0.0312,0.0315,0.0309,0.0284,0.0269,0.0248,0.0202,0.0198,0.0154,0.0175,0.0085,0.0078,0.0007,-0.0057,-0.0082,-0.0106,-0.0146,-0.0127,-0.0122,-0.0075,-0.0065,-0.0161,-0.0184,-0.0184,-0.0184,-0.0184,0,0.0339,0.0343,0.0334,0.034,0.0348,0.0307,0.0314,0.0281,0.0268,0.0301,0.0207,0.0242,0.0093,0.006,-0.0022,-0.0055,-0.0076,-0.0115,-0.0114,-0.0065,-0.0055,-0.0164,-0.0249,-0.0184,-0.0184,-0.0184,-0.0184,0,0.0373,0.0364,0.0379,0.0368,0.0368,0.0377,0.0384,0.0401,0.0373,0.0422,0.042,0.0364,0.0336,0.0206,0.0111,0.0022,-0.0082,-0.0046,0.0033,0.0043,-0.0062,-0.0147,-0.021,-0.0262,-0.0031,-0.0029,-0.0028,0,0.0392,0.0404,0.0423,0.045,0.0453,0.0466,0.0491,0.0463,0.0501,0.0528,0.0576,0.0547,0.0599,0.0472,0.0304,0.0182,0.0018,0.0109,0.006,-0.0049,-0.0145,-0.0201,-0.0246,0.0131,0.0133,0.0135,0.0137,0,0.0438,0.045,0.0474,0.0534,0.0571,0.0609,0.0645,0.0693,0.0692,0.0768,0.0876,0.0923,0.0821,0.074,0.0528,0.0412,0.0042,0.0148,0.0005,-0.0046,-0.0084,-0.0137,0.0105,0.0155,0.0153,0.0151,0.0151,0.015,0.0488,0.0526,0.057,0.0626,0.0683,0.0756,0.0815,0.0893,0.1001,0.1152,0.1158,0.1327,0.1108,0.0865,0.0647,0.0263,0.0225,0.0137,0.004,-0.001,-0.0055,0.0243,0.031,0.031,0.0309,0.0308,0.0308,0,0.055,0.0592,0.0656,0.0738,0.0829,0.0825,0.0929,0.1022,0.1209,0.1412,0.157,0.1633,0.1361,0.099,0.0464,0.0191,0.006,0.0014,-0.0087,-0.0133,0.0116,0.0126,0.0195,0.0195,0.0195,0.0195,0.0196,0.0196,0.0587,0.0661,0.0693,0.085,0.0917,0.1041,0.1112,0.1276,0.145,0.1759,0.1949,0.2053,0.1767,0.0794,0.0123,-0.0047,-0.0273,-0.0261,-0.0416,-0.0287,-0.0284,-0.0282,-0.0294,-0.0314,-0.0315,-0.0604,-0.0607,-0.0609]}],[{"header":{"parameterUnit":"m.s-1","parameterCategory":2,"la1":30.2991,"la2":30.254,"lo1":-89.0895,"lo2":-89.0444,"dy":0.0017,"dx":0.0017,"nx":28,"ny":28,"refTime":"2024-05-29T21:00:00:Z","depth":"2","parameterNumber":2,"parameterNumberName":"U-component_of_CURRENTS"},"data":[0,0,0,0,0,0,0,0,0,0,0,0,0,0,0,0,0,0,0,0,0,0,0,0,0,0,0,0,0,0,0,0,0,0,0,0,0,0,0,0,0,0,0,0,0,0,0,0,0,0,0,0,0,0,0,0,0,0,0.2332,0.2333,0,0.2323,0.2322,0.2322,0.2312,0.2313,0.2313,0.2314,0.2362,0.2363,0.2363,0,0,0,0,0,0,0,0,0,0,0,0,0,0.2287,0.2288,0.2332,0.2333,0.2333,0.2323,0.2322,0.2322,0.2312,0.2313,0.2313,0.2314,0.2361,0.2362,0.2363,0,0,0,0,0,0,0,0,0,0,0,0,0,0.2289,0.2288,0.2332,0.2332,0.2333,0.2323,0.2322,0.2321,0.2312,0.2313,0.2313,0.2314,0.2361,0.2362,0.2364,0.2357,0,0,0.2367,0.2368,0,0,0,0,0,0,0,0,0.2289,0.229,0.2332,0.2332,0.2333,0.2325,0.2324,0.2338,0.2312,0.2313,0.2314,0.2314,0.2359,0.236,0.2346,0.2359,0.2361,0.2367,0.2368,0.2369,0.2369,0,0,0,0,0,0,0,0.2289,0.229,0.2322,0.2332,0.2333,0.2315,0.2315,0.2326,0.2328,0.2313,0.2314,0.2323,0.2359,0.2345,0.2348,0.2362,0.2367,0.2369,0.2369,0.237,0.2378,0.2377,0,0,0,0,0,0,0.2306,0.229,0.2322,0.2322,0.232,0.2315,0.2316,0.2321,0.2326,0.2329,0.2322,0.2323,0.2343,0.2346,0.235,0.2382,0.2369,0.237,0.2371,0.2378,0.2378,0.2377,0,0,0,0,0,0,0.2304,0.2308,0.2323,0.2311,0.2313,0.2317,0.2322,0.2321,0.2321,0.2334,0.2337,0.2326,0.2343,0.2348,0.2357,0.2382,0.237,0.2372,0.2379,0.2378,0.2377,0.2421,0,0,0,0,0,0,0.2303,0.2308,0.2301,0.2312,0.2314,0.2329,0.2322,0.2321,0.2328,0.2329,0.2338,0.2342,0.2344,0.2355,0.2358,0.2384,0.2373,0.238,0.2379,0.2378,0.242,0.2422,0.2423,0,0,0,0,0,0.2301,0.2288,0.23,0.2304,0.231,0.233,0.2328,0.2328,0.2328,0.2329,0.2327,0.2343,0.2351,0.2355,0.2359,0.2386,0.238,0.2379,0.2378,0.2419,0.2421,0.2423,0,0,0,0,0,0,0.2267,0.2287,0.2301,0.2295,0.2322,0.2331,0.2325,0.2334,0.233,0.2332,0.2337,0.2341,0.2366,0.2355,0.236,0.238,0.2368,0.2368,0.2398,0.24,0.2402,0.2404,0.2374,0,0,0,0,0,0.2259,0.226,0.2287,0.2292,0.23,0.2317,0.232,0.2333,0.234,0.2338,0.2347,0.2348,0.2359,0.2363,0.2372,0.2378,0.2416,0.2394,0.2395,0.2397,0.2398,0.2502,0.2515,0.2373,0.2373,0.2373,0,0,0.2255,0.2265,0.2267,0.2286,0.23,0.2311,0.2318,0.2338,0.2344,0.2346,0.2348,0.2365,0.2363,0.2376,0.2385,0.2373,0.245,0.2395,0.2397,0.2397,0.2502,0.2517,0.253,0.2372,0.2373,0.2373,0,0,0.2249,0.2253,0.2251,0.2268,0.23,0.2311,0.2324,0.2345,0.2346,0.2359,0.2364,0.2385,0.2392,0.2396,0.2398,0.2406,0.2464,0.2416,0.2422,0.2523,0.2537,0.255,0.2599,0.2616,0.2406,0.2406,0.2406,0,0.224,0.2244,0.2257,0.2264,0.2278,0.2315,0.2326,0.233,0.2354,0.2389,0.2366,0.2429,0.2399,0.2451,0.2418,0.2414,0.2474,0.2423,0.2531,0.2544,0.2557,0.2605,0.2623,0.2408,0.2408,0.2408,0.2408,0,0.2237,0.2241,0.2245,0.2266,0.228,0.23,0.2323,0.236,0.2376,0.2405,0.2476,0.2453,0.2515,0.2483,0.2431,0.2508,0.2523,0.2538,0.254,0.2575,0.2621,0.2639,0.2411,0.241,0.241,0.2409,0,0,0.2218,0.2236,0.2239,0.2255,0.2283,0.2304,0.2339,0.24,0.2474,0.2489,0.2582,0.2541,0.2596,0.2595,0.2579,0.2592,0.267,0.258,0.2585,0.265,0.2887,0.2783,0.2793,0.2739,0.2743,0.2746,0.288,0,0.2216,0.2232,0.2232,0.226,0.2278,0.2326,0.2373,0.2443,0.25,0.2599,0.2623,0.2688,0.2625,0.2662,0.2688,0.2667,0.2725,0.2631,0.2823,0.2827,0.2751,0.2812,0.255,0.264,0.2898,0.2901,0.2903,0,0.2205,0.2226,0.2242,0.2301,0.2315,0.2342,0.2472,0.2528,0.2677,0.2729,0.2844,0.2874,0.2896,0.2841,0.2912,0.2872,0.2892,0.2868,0.2876,0.2777,0.2758,0.2647,0.2664,0.2934,0.2931,0.2929,0.2927,0,0.2203,0.2227,0.2243,0.2255,0.2329,0.2377,0.2452,0.2597,0.2676,0.2842,0.2911,0.3018,0.3055,0.3108,0.3043,0.3009,0.312,0.3093,0.3045,0.3038,0.2844,0.2813,0.3215,0.3215,0.3215,0.3214,0.3214,0,0.2191,0.2211,0.2254,0.227,0.2346,0.2413,0.254,0.2644,0.2811,0.2911,0.3003,0.3067,0.3122,0.3176,0.3142,0.3139,0.3246,0.3059,0.308,0.2844,0.2813,0.3087,0.307,0.3219,0.3218,0.3217,0.3216,0,0.218,0.2199,0.2226,0.2303,0.2341,0.2413,0.2569,0.2669,0.2833,0.2968,0.301,0.3131,0.3173,0.3223,0.3278,0.3244,0.3248,0.3249,0.2932,0.2911,0.3072,0.3056,0.3201,0.3199,0.3197,0.3196,0.3194,0,0.2169,0.2182,0.2243,0.2262,0.2291,0.2413,0.2502,0.2678,0.2782,0.2965,0.3014,0.3112,0.313,0.3197,0.3156,0.3167,0.325,0.2955,0.2821,0.3072,0.3079,0.3065,0.3052,0.258,0.2574,0.2569,0.2565,0,0.2156,0.2172,0.2205,0.2243,0.2294,0.2366,0.2509,0.2559,0.2757,0.2836,0.2913,0.2929,0.3014,0.2876,0.2923,0.2885,0.2914,0.2849,0.3261,0.2608,0.2494,0.2498,0.2504,0.2519,0.2524,0.2527,0.253,0.2532,0.2154,0.2156,0.2182,0.2217,0.226,0.2274,0.2301,0.2404,0.2484,0.2547,0.2678,0.2635,0.2683,0.2566,0.2499,0.2473,0.2667,0.2549,0.2562,0.2582,0.247,0.2357,0.2334,0.2338,0.234,0.2343,0.2345,0,0.2116,0.213,0.2152,0.2157,0.2139,0.2208,0.2269,0.2239,0.2224,0.2291,0.2324,0.2109,0.2031,0.2106,0.1981,0.1988,0.1949,0.1917,0.1842,0.189,0.1932,0.1784,0.1467,0.1465,0.1462,0.1459,0,0,0.2094,0.2089,0.209,0.2036,0.2037,0.1987,0.1975,0.1905,0.1919,0.1798,0.178,0.1908,0.2016,0.1695,0.1667,0.1546,0.1697,0.1482,0.2189,0.2146,0.2184,0.2305,0.2132,0,0,0,0,0]},{"header":{"parameterUnit":"m.s-1","parameterCategory":2,"la1":30.2991,"la2":30.254,"lo1":-89.0895,"lo2":-89.0444,"dy":0.0017,"dx":0.0017,"nx":28,"ny":28,"refTime":"2024-05-29T21:00:00:Z","depth":"2","parameterNumber":3,"parameterNumberName":"V-component_of_CURRENTS"},"data":[0,0,0,0,0,0,0,0,0,0,0,0,0,0,0,0,0,0,0,0,0,0,0,0,0,0,0,0,0,0,0,0,0,0,0,0,0,0,0,0,0,0,0,0,0,0,0,0,0,0,0,0,0,0,0,0,0,0,0.0217,0.0217,0,0.02,0.02,0.0199,0.0183,0.0183,0.0183,0.0183,0.0066,0.0063,0.006,0,0,0,0,0,0,0,0,0,0,0,0,0,0.0209,0.0209,0.0217,0.0217,0.0217,0.02,0.02,0.0199,0.0183,0.0183,0.0183,0.0183,0.0067,0.0063,0.0059,0,0,0,0,0,0,0,0,0,0,0,0,0,0.0202,0.0209,0.0217,0.0209,0.0208,0.02,0.02,0.0199,0.0183,0.0183,0.0183,0.0183,0.0068,0.0063,0.0059,0.003,0,0,0.0044,0.0042,0,0,0,0,0,0,0,0,0.0202,0.0202,0.021,0.0209,0.0208,0.0196,0.0154,0.0138,0.0183,0.0191,0.0183,0.0183,0.0101,0.0094,0.0089,0.0024,0.0019,0.0044,0.0041,0.0039,0.0038,0,0,0,0,0,0,0,0.0203,0.0203,0.0208,0.021,0.0209,0.0196,0.0195,0.0151,0.0143,0.019,0.0189,0.0191,0.01,0.0094,0.0086,0.0017,0.0044,0.004,0.0037,0.0035,-0.0062,-0.0062,0,0,0,0,0,0,0.0211,0.0203,0.0209,0.0208,0.0208,0.0197,0.0196,0.0198,0.0145,0.0139,0.0191,0.019,0.0102,0.0091,0.0081,0.0055,0.0039,0.0035,0.0032,-0.0062,-0.0062,-0.0062,0,0,0,0,0,0,0.0211,0.0211,0.0209,0.0207,0.0206,0.0197,0.02,0.0198,0.0195,0.0147,0.0138,0.0191,0.0101,0.0088,0.0053,0.0049,0.0033,0.0028,-0.0063,-0.0062,-0.0062,-0.0007,0,0,0,0,0,0,0.021,0.0211,0.0216,0.0207,0.0206,0.0211,0.02,0.0197,0.0197,0.0196,0.0144,0.0134,0.01,0.006,0.0048,0.0042,0.0025,-0.0063,-0.0063,-0.0062,-0.0009,-0.0005,-0.0001,0,0,0,0,0,0.021,0.0218,0.0216,0.0217,0.0213,0.0211,0.021,0.0202,0.0197,0.0199,0.0168,0.0135,0.0054,0.0057,0.0042,0.0035,-0.0063,-0.0063,-0.0062,-0.0011,-0.0006,-0.0001,0,0,0,0,0,0,0.0216,0.0217,0.0215,0.0222,0.022,0.021,0.0212,0.0206,0.0184,0.018,0.0135,0.0122,0.0088,0.0057,0.0061,0.001,-0.0009,-0.0012,0.0034,0.0039,0.0043,0.0085,0.0021,0,0,0,0,0,0.022,0.0226,0.0224,0.0229,0.0231,0.0222,0.022,0.0215,0.0197,0.0189,0.0156,0.0118,0.0078,0.0057,0.0017,-0.0012,-0.0026,-0.0024,-0.002,-0.0016,0.0009,-0.0014,-0.0009,-0.006,-0.006,-0.006,0,0,0.0224,0.0225,0.0229,0.0231,0.0228,0.0233,0.022,0.0222,0.0227,0.0175,0.0168,0.0125,0.0073,0.0044,0.0026,0.0018,-0.0012,-0.0016,-0.0012,0.0011,-0.0013,-0.0008,-0.0003,-0.006,-0.006,-0.006,0,0,0.0236,0.0236,0.0247,0.0248,0.0249,0.0243,0.0247,0.0239,0.0238,0.0223,0.0187,0.0159,0.0096,0.0072,0.0047,0.005,0.0008,0.0023,0.0077,0.0054,0.0059,0.0063,0.0044,0.0046,0.0028,0.0028,0.0028,0,0.024,0.0256,0.0249,0.0259,0.027,0.0251,0.0269,0.026,0.0243,0.0254,0.0227,0.0168,0.0117,0.0097,0.0096,0.0061,0.004,0.0062,0.0061,0.0064,0.0067,0.0047,0.0049,0.0031,0.003,0.003,0.003,0,0.0259,0.0274,0.0281,0.0291,0.0298,0.0309,0.0304,0.0306,0.0297,0.0298,0.0284,0.0223,0.0194,0.0164,0.0127,0.0121,0.0097,0.0066,0.0053,0.0076,0.0053,0.0053,0.0035,0.0034,0.0033,0.0032,0,0,0.0269,0.0292,0.0295,0.0326,0.0322,0.0342,0.0343,0.0364,0.0398,0.0357,0.04,0.0315,0.0294,0.0265,0.021,0.0193,0.0181,0.0143,0.0141,0.0134,0.0132,0.0117,0.0115,0.0144,0.0144,0.0145,0.0105,0,0.0291,0.0329,0.0332,0.038,0.0407,0.0403,0.0418,0.0431,0.0439,0.0473,0.0422,0.0426,0.0326,0.032,0.0278,0.0221,0.0186,0.0195,0.0105,0.0103,0.0093,0.0116,0.0128,0.0095,0.0106,0.0106,0.0106,0,0.0312,0.0342,0.0389,0.0455,0.0469,0.0489,0.0547,0.0561,0.0584,0.0594,0.0578,0.0549,0.0513,0.0432,0.0324,0.0331,0.0234,0.018,0.0176,0.0151,0.0089,0.0074,0.0095,0.0106,0.0106,0.0106,0.0106,0,0.034,0.0394,0.0443,0.0459,0.0509,0.0542,0.0569,0.0599,0.0646,0.0682,0.0724,0.0664,0.0644,0.0531,0.0383,0.0358,0.0279,0.0227,0.0117,0.0114,0.0105,0.0101,0.0147,0.0147,0.0147,0.0147,0.0147,0,0.0369,0.0417,0.0466,0.0496,0.0584,0.0594,0.0686,0.0706,0.0758,0.084,0.0784,0.0825,0.0667,0.0594,0.0445,0.0289,0.0307,0.0146,0.0111,0.0123,0.0121,0.0115,0.0111,0.0146,0.0146,0.0146,0.0146,0,0.0394,0.0415,0.0494,0.0564,0.0598,0.0661,0.0765,0.0835,0.0857,0.0963,0.0981,0.095,0.0858,0.0691,0.0527,0.0372,0.0236,0.0161,0.019,0.0159,0.0072,0.0072,0.0063,0.0062,0.0062,0.0061,0.0061,0,0.0411,0.0444,0.055,0.0614,0.0654,0.0748,0.0821,0.0879,0.096,0.1043,0.1106,0.1054,0.1031,0.0785,0.0532,0.0292,0.0234,0.0129,0.0083,0.0101,0.0066,0.0067,0.0068,0.0084,0.0084,0.0084,0.0084,0,0.0454,0.0484,0.0551,0.0672,0.077,0.0891,0.0997,0.1085,0.1162,0.1232,0.1313,0.1307,0.1079,0.0851,0.0513,0.0341,0.0178,0.0118,0.0139,0.0105,0.0118,0.0085,0.0086,0.0082,0.0082,0.0082,0.0083,0.0083,0.0493,0.0547,0.0629,0.0749,0.0866,0.1018,0.1121,0.1235,0.1364,0.1462,0.1449,0.1403,0.1156,0.0719,0.0458,0.0165,0.0171,0.0049,0.005,0.0052,0.0064,0.0075,0.0033,0.0033,0.0033,0.0033,0.0032,0,0.0547,0.0602,0.0707,0.0853,0.0978,0.1036,0.1228,0.1321,0.147,0.1525,0.1552,0.1287,0.1037,0.0742,0.0321,0.0083,0.0054,-0.0007,0.0014,0.0017,0.002,0.003,-0.001,-0.0011,-0.0012,-0.0012,0,0,0.058,0.0673,0.072,0.0915,0.1019,0.1192,0.1307,0.1437,0.1507,0.155,0.1491,0.142,0.1091,0.0774,0.0461,0.0228,0.0171,0.017,0.0229,0.0295,0.03,0.0075,0.0098,0,0,0,0,0]}],[{"header":{"parameterUnit":"m.s-1","parameterCategory":2,"la1":30.2991,"la2":30.254,"lo1":-89.0895,"lo2":-89.0444,"dy":0.0017,"dx":0.0017,"nx":28,"ny":28,"refTime":"2024-05-29T21:00:00:Z","depth":"4","parameterNumber":2,"parameterNumberName":"U-component_of_CURRENTS"},"data":[0,0,0,0,0,0,0,0,0,0,0,0,0,0,0,0,0,0,0,0,0,0,0,0,0,0,0,0,0,0,0,0,0,0,0,0,0,0,0,0,0,0,0,0,0,0,0,0,0,0,0,0,0,0,0,0,0,0,0.1234,0.1234,0,0.1205,0.1204,0.1203,0.1201,0.1202,0.1202,0.1203,0.1242,0.1242,0.1242,0,0,0,0,0,0,0,0,0,0,0,0,0,0.1268,0.1267,0.1233,0.1234,0.1234,0.1205,0.1204,0.1203,0.1201,0.1202,0.1203,0.1204,0.1242,0.1242,0.1242,0,0,0,0,0,0,0,0,0,0,0,0,0,0.1242,0.1267,0.1233,0.1234,0.1234,0.1205,0.1204,0.1203,0.12,0.1202,0.1203,0.1204,0.1242,0.1242,0.1242,0.1219,0,0,0.1243,0.1244,0,0,0,0,0,0,0,0,0.1244,0.124,0.1233,0.1234,0.1234,0.1213,0.1231,0.1214,0.12,0.1207,0.1203,0.1205,0.1241,0.1242,0.1224,0.1221,0.1222,0.1243,0.1244,0.1244,0.1244,0,0,0,0,0,0,0,0.1245,0.1241,0.1216,0.1234,0.1234,0.123,0.1227,0.1227,0.1214,0.1206,0.1208,0.1213,0.1241,0.1224,0.1225,0.1223,0.1243,0.1244,0.1244,0.1244,0.1298,0.1299,0,0,0,0,0,0,0.126,0.1243,0.1217,0.1216,0.1249,0.1228,0.1225,0.1213,0.1212,0.1215,0.1212,0.1214,0.1222,0.1225,0.1227,0.1272,0.1244,0.1244,0.1244,0.1297,0.1298,0.13,0,0,0,0,0,0,0.1261,0.1257,0.1218,0.1235,0.123,0.1227,0.1214,0.1212,0.1231,0.1217,0.122,0.1238,0.1224,0.1226,0.1257,0.1272,0.1244,0.1245,0.1295,0.1297,0.1299,0.1317,0,0,0,0,0,0,0.1261,0.1257,0.1268,0.1235,0.123,0.122,0.1213,0.1211,0.1233,0.1235,0.1239,0.1242,0.1225,0.1256,0.1257,0.1272,0.1245,0.1294,0.1296,0.1298,0.1315,0.1319,0.1323,0,0,0,0,0,0.1262,0.1263,0.1268,0.1267,0.124,0.1221,0.1218,0.1216,0.1234,0.1238,0.125,0.1243,0.1272,0.1257,0.1258,0.1273,0.1293,0.1296,0.1298,0.1313,0.1318,0.1323,0,0,0,0,0,0,0.1289,0.1262,0.1267,0.1262,0.1257,0.1224,0.1233,0.1238,0.1247,0.1261,0.1255,0.1257,0.1288,0.1285,0.127,0.1298,0.1283,0.1286,0.1294,0.1299,0.1303,0.1287,0.1245,0,0,0,0,0,0.1299,0.1291,0.1273,0.1275,0.1274,0.1263,0.1265,0.1263,0.1262,0.1268,0.1271,0.1282,0.1291,0.1302,0.1303,0.1319,0.134,0.1333,0.1337,0.134,0.133,0.1396,0.1405,0.1309,0.1309,0.1309,0,0,0.1314,0.13,0.1298,0.1282,0.1275,0.1262,0.1266,0.1272,0.1266,0.1272,0.1281,0.1298,0.1301,0.1313,0.1327,0.1318,0.1381,0.1344,0.1346,0.1334,0.14,0.141,0.1418,0.131,0.131,0.131,0,0,0.1318,0.1323,0.1311,0.1306,0.1305,0.129,0.1304,0.1289,0.1292,0.1303,0.131,0.1338,0.1347,0.1344,0.1347,0.1379,0.1401,0.1395,0.1399,0.1464,0.1472,0.148,0.1524,0.1535,0.1396,0.1396,0.1396,0,0.1344,0.1314,0.1311,0.1298,0.1293,0.1307,0.1292,0.1292,0.1293,0.1301,0.1314,0.1344,0.1352,0.1367,0.1377,0.1384,0.1428,0.1377,0.1469,0.1477,0.1484,0.1527,0.154,0.1397,0.1397,0.1397,0.1396,0,0.1322,0.1315,0.1311,0.129,0.1286,0.1282,0.1275,0.1283,0.1301,0.1308,0.1341,0.1354,0.1374,0.1387,0.1388,0.1443,0.146,0.1468,0.1454,0.1495,0.1538,0.155,0.1399,0.1398,0.1398,0.1397,0,0,0.1337,0.13,0.1306,0.1288,0.1281,0.1269,0.1266,0.1262,0.1284,0.1302,0.1328,0.1345,0.1382,0.1388,0.1408,0.1457,0.1548,0.149,0.1493,0.1528,0.1698,0.1588,0.1591,0.1592,0.1594,0.1596,0.1709,0,0.1324,0.1285,0.1274,0.1252,0.1225,0.1233,0.1233,0.1244,0.127,0.1307,0.1336,0.139,0.1376,0.1421,0.1457,0.1541,0.1582,0.1516,0.1657,0.166,0.1553,0.1602,0.1603,0.1718,0.1721,0.1723,0.1725,0,0.1299,0.1271,0.1237,0.1213,0.1209,0.1213,0.122,0.123,0.1283,0.1314,0.136,0.1411,0.1478,0.1478,0.1599,0.1571,0.1626,0.1677,0.1684,0.1577,0.1573,0.1669,0.1747,0.1745,0.1744,0.1742,0.1741,0,0.1274,0.1246,0.1214,0.1207,0.1189,0.1193,0.1207,0.1245,0.1267,0.1357,0.1417,0.1475,0.155,0.1621,0.1703,0.1687,0.1843,0.1833,0.177,0.1764,0.182,0.1811,0.1909,0.1909,0.1909,0.1909,0.1908,0,0.1235,0.1219,0.1212,0.1195,0.1188,0.1195,0.1223,0.1247,0.1313,0.1363,0.1448,0.1505,0.1604,0.1692,0.174,0.1787,0.1873,0.177,0.1787,0.1826,0.1816,0.1829,0.1818,0.1913,0.1912,0.1911,0.191,0,0.1194,0.1193,0.1159,0.1157,0.117,0.1174,0.1226,0.1248,0.1342,0.1414,0.1462,0.1571,0.1692,0.1761,0.1891,0.1839,0.1901,0.1892,0.1928,0.1945,0.1767,0.1756,0.1834,0.1831,0.1829,0.1827,0.1825,0,0.1159,0.1136,0.1136,0.1138,0.1144,0.1168,0.1186,0.125,0.1276,0.144,0.1465,0.1624,0.1687,0.1771,0.1848,0.1913,0.189,0.1897,0.1809,0.1752,0.1761,0.1754,0.1747,0.1821,0.1821,0.182,0.1819,0,0.1093,0.111,0.1094,0.1093,0.1111,0.1102,0.1141,0.1153,0.1245,0.136,0.1446,0.1524,0.1641,0.1709,0.1767,0.1809,0.188,0.187,0.1875,0.1793,0.1737,0.1747,0.1743,0.1811,0.1812,0.1813,0.1813,0,0.1066,0.1042,0.1042,0.1034,0.1054,0.1021,0.1045,0.108,0.1118,0.1291,0.1321,0.1498,0.1616,0.1659,0.1722,0.1743,0.1717,0.1653,0.1668,0.1679,0.1573,0.1477,0.1487,0,0,0,0,0,0.1018,0.0985,0.0979,0.0948,0.0967,0.097,0.1003,0.1032,0.1141,0.1164,0.123,0.1336,0.1442,0.1531,0.1525,0.1655,0.1716,0.164,0.1647,0.1763,0.1773,0.1662,0,0,0,0,0,0,0.0985,0.0973,0.0952,0.0891,0.0867,0.0856,0.0872,0.0937,0.0943,0.1082,0.1144,0.1264,0.1382,0.1444,0.1508,0.1533,0.151,0.1742,0.1738,0.1758,0.1767,0.1775,0.1664,0,0,0,0,0]},{"header":{"parameterUnit":"m.s-1","parameterCategory":2,"la1":30.2991,"la2":30.254,"lo1":-89.0895,"lo2":-89.0444,"dy":0.0017,"dx":0.0017,"nx":28,"ny":28,"refTime":"2024-05-29T21:00:00:Z","depth":"4","parameterNumber":3,"parameterNumberName":"V-component_of_CURRENTS"},"data":[0,0,0,0,0,0,0,0,0,0,0,0,0,0,0,0,0,0,0,0,0,0,0,0,0,0,0,0,0,0,0,0,0,0,0,0,0,0,0,0,0,0,0,0,0,0,0,0,0,0,0,0,0,0,0,0,0,0,0.0226,0.0226,0,0.0225,0.0225,0.0225,0.0228,0.0228,0.0228,0.0229,0.0168,0.0167,0.0165,0,0,0,0,0,0,0,0,0,0,0,0,0,0.0207,0.0207,0.0226,0.0226,0.0226,0.0225,0.0225,0.0225,0.0228,0.0228,0.0229,0.0229,0.0169,0.0167,0.0165,0,0,0,0,0,0,0,0,0,0,0,0,0,0.021,0.0207,0.0226,0.0228,0.0229,0.0225,0.0225,0.0225,0.0228,0.0228,0.0229,0.0229,0.017,0.0167,0.0165,0.0142,0,0,0.0156,0.0155,0,0,0,0,0,0,0,0,0.021,0.0211,0.0228,0.0228,0.0228,0.0228,0.0196,0.0195,0.0228,0.0227,0.0229,0.0229,0.0183,0.018,0.0178,0.0139,0.0137,0.0156,0.0154,0.0153,0.0153,0,0,0,0,0,0,0,0.021,0.0211,0.0224,0.0228,0.0228,0.0222,0.0223,0.0196,0.0202,0.0227,0.0228,0.0229,0.0183,0.0181,0.0177,0.0136,0.0156,0.0154,0.0152,0.0151,0.0092,0.0093,0,0,0,0,0,0,0.0213,0.0211,0.0225,0.0225,0.0221,0.0222,0.0223,0.0227,0.0203,0.0201,0.0229,0.0229,0.0185,0.018,0.0174,0.0185,0.0153,0.0151,0.0149,0.0092,0.0092,0.0093,0,0,0,0,0,0,0.0213,0.0215,0.0225,0.0218,0.0219,0.0222,0.0227,0.0227,0.0232,0.0206,0.0202,0.0235,0.0185,0.0178,0.016,0.0181,0.015,0.0147,0.0092,0.0092,0.0093,0.018,0,0,0,0,0,0,0.0212,0.0215,0.022,0.0219,0.022,0.023,0.0226,0.0227,0.0232,0.0233,0.0209,0.0203,0.0185,0.0164,0.0158,0.0177,0.0145,0.0092,0.0092,0.0092,0.0178,0.0184,0.0189,0,0,0,0,0,0.0212,0.0219,0.022,0.0222,0.0226,0.023,0.023,0.0232,0.0233,0.0237,0.0222,0.0205,0.016,0.0162,0.0154,0.0173,0.0092,0.0092,0.0092,0.0175,0.0182,0.0189,0,0,0,0,0,0,0.0212,0.022,0.0221,0.023,0.0233,0.0231,0.0236,0.0236,0.0228,0.0228,0.0204,0.0197,0.0188,0.0161,0.0164,0.0153,0.0123,0.0122,0.0189,0.0195,0.0201,0.0224,0.0143,0,0,0,0,0,0.0215,0.0223,0.0226,0.0234,0.0237,0.0238,0.024,0.0241,0.0234,0.0233,0.0218,0.0197,0.018,0.0174,0.0148,0.0142,0.0109,0.0147,0.0153,0.0158,0.0169,0.0129,0.0132,0.0093,0.0093,0.0093,0,0,0.0217,0.0222,0.0227,0.0235,0.0238,0.0254,0.024,0.0247,0.0265,0.0224,0.024,0.0212,0.0179,0.0178,0.0171,0.0161,0.0151,0.0158,0.0163,0.0172,0.0129,0.0133,0.0137,0.0093,0.0093,0.0093,0,0,0.0229,0.0232,0.0245,0.0253,0.0261,0.0265,0.027,0.0273,0.028,0.0284,0.0262,0.0251,0.0224,0.0215,0.0204,0.022,0.0177,0.0207,0.0264,0.0225,0.0228,0.0231,0.0198,0.0197,0.0217,0.0217,0.0218,0,0.0231,0.0253,0.0248,0.0266,0.0283,0.0275,0.0301,0.0304,0.0303,0.0313,0.0299,0.0273,0.0247,0.0251,0.0264,0.0237,0.0204,0.0248,0.0235,0.0236,0.0237,0.0203,0.02,0.0222,0.0221,0.0221,0.022,0,0.0254,0.0277,0.0287,0.0313,0.0327,0.0346,0.0356,0.0369,0.0375,0.0378,0.0381,0.0345,0.0334,0.0323,0.0304,0.0304,0.0275,0.0243,0.0225,0.0247,0.0209,0.0205,0.0228,0.0226,0.0225,0.0224,0,0,0.0253,0.0296,0.0302,0.0333,0.0358,0.0375,0.0408,0.0437,0.0463,0.0454,0.0481,0.0458,0.0437,0.0422,0.0389,0.0365,0.035,0.0319,0.0315,0.03,0.0265,0.0243,0.0236,0.0313,0.0313,0.0313,0.0237,0,0.0278,0.0329,0.0343,0.0402,0.0436,0.0451,0.0487,0.051,0.0516,0.0534,0.0508,0.0509,0.0474,0.0469,0.0442,0.0371,0.0342,0.0373,0.0233,0.023,0.0218,0.0231,0.0312,0.0233,0.0232,0.0232,0.0231,0,0.0299,0.0338,0.04,0.0469,0.0485,0.052,0.058,0.061,0.0627,0.0632,0.0627,0.0591,0.0573,0.0525,0.0432,0.0451,0.0371,0.031,0.0305,0.0253,0.02,0.0201,0.0223,0.0224,0.0224,0.0225,0.0225,0,0.0312,0.0379,0.0437,0.046,0.053,0.0569,0.0609,0.0643,0.0682,0.069,0.0705,0.0662,0.0643,0.0547,0.0435,0.0427,0.0315,0.0281,0.0184,0.0181,0.0186,0.0183,0.0203,0.0203,0.0203,0.0203,0.0203,0,0.0338,0.0385,0.0453,0.0488,0.057,0.0605,0.0685,0.0711,0.0754,0.0797,0.0757,0.0759,0.0644,0.0566,0.0454,0.0318,0.0325,0.0201,0.0162,0.0223,0.0226,0.0183,0.0181,0.02,0.0201,0.0201,0.0202,0,0.0343,0.0385,0.046,0.0546,0.0581,0.0641,0.0748,0.0801,0.0829,0.0878,0.0884,0.0836,0.0729,0.0603,0.044,0.0344,0.0211,0.0153,0.0243,0.0209,0.0097,0.0101,0.0041,0.004,0.0039,0.0038,0.0037,0,0.0352,0.0391,0.0498,0.0553,0.0599,0.0696,0.0771,0.0839,0.0888,0.0917,0.0934,0.0856,0.0799,0.057,0.0426,0.0215,0.0173,0.0106,0.0094,0.0113,0.0081,0.0087,0.0093,0.0035,0.0035,0.0034,0.0034,0,0.0373,0.0409,0.047,0.058,0.0671,0.0771,0.0868,0.0912,0.0978,0.1,0.0968,0.0857,0.0733,0.0557,0.0396,0.0241,0.0156,0.0093,0.0093,0.0082,0.0105,0.0076,0.0082,0.003,0.0031,0.0031,0.0031,0,0.0387,0.0428,0.051,0.0607,0.0716,0.0813,0.087,0.0929,0.0984,0.1004,0.0986,0.0864,0.0795,0.0569,0.0422,0.0272,0.0219,0.016,0.0157,0.0159,0.0213,0.0261,0.0208,0,0,0,0,0,0.0402,0.0449,0.0535,0.0643,0.0745,0.0811,0.0922,0.0968,0.1025,0.1005,0.0997,0.0879,0.0661,0.0574,0.0416,0.0384,0.0189,0.0192,0.0119,0.0008,0.0013,0.0053,0,0,0,0,0,0,0.0415,0.0487,0.053,0.0652,0.0725,0.0846,0.092,0.096,0.0946,0.0968,0.0857,0.0817,0.0608,0.0741,0.0402,0.036,0.0286,0.0099,0.0095,0.0005,0.001,0.0013,0.0056,0,0,0,0,0]}]]